Flag for Thailand Weather past 2 weeks in Phuket, Thailand

Now
90 °F

Scattered clouds.


Feels Like: 100 °F
Forecast: 77 / 90 °F
Wind: 13 mph from West

Location: Phuket Airport

Current Time: May 29, 2015 at 4:04:06 PM

Latest Report: May 29, 2015 at 3:30 PM


Visibility: N/A

Pressure: 29.80 "Hg

Humidity: 63%

Dew point: 75 °F

Location of PhuketLocation

Historic Weather in Phuket — Graph

°F

Phuket temperature yesterday

Maximum temperature yesterday: 90 °F (at 12:00 PM)
Minimum temperature yesterday: 75 °F (at 1:30 AM)
Average temperature yesterday: 81 °F

Past Weeks' High & Low Weather Summary

 TemperatureHumidityPressure
High91 °F (May 23, 10:30 AM)94% (May 15, 5:00 AM)29.92 "Hg (May 15, 5:00 AM)
Low73 °F (May 18, 6:00 AM)55% (May 21, 12:30 PM)29.74 "Hg (May 17, 4:30 PM)
Average83 °F78%29.85 "Hg
* Reported May 14 2:00 PM — May 29 2:30 PM, Phuket, Weather by CustomWeather, © 2015

Note: Actual official high and low records may vary slightly from our data, if they occured in-between our weather recording intervals... More about our weather records

Advertising

Phuket weather history for previous 24 hours

 ConditionsComfort  
Time TempWeatherWind HumidityBarometerVisibility
2:30 PM
Fri, May 29
90 °FScattered clouds.13 mph59%29.80 "HgN/A
2:00 PM90 °FScattered clouds.13 mph59%29.80 "HgN/A
1:30 PM90 °FScattered clouds.9 mph55%29.80 "HgN/A
1:00 PM90 °FScattered clouds.12 mph59%29.83 "HgN/A
12:30 PM90 °FScattered clouds.12 mph55%29.83 "HgN/A
12:00 PM90 °FScattered clouds.10 mph59%29.86 "HgN/A
11:30 AM90 °FScattered clouds.9 mph63%29.86 "HgN/A
10:00 AM88 °FPartly sunny.7 mph66%29.86 "HgN/A
9:30 AM86 °FPartly sunny.3 mph70%29.86 "HgN/A
9:00 AM86 °FPartly sunny.3 mph79%29.86 "HgN/A
8:30 AM84 °FPartly sunny.3 mph84%29.86 "HgN/A
8:00 AM81 °FPartly sunny.3 mph89%29.86 "HgN/A
7:30 AM79 °FPartly sunny.No wind94%29.83 "HgN/A
7:00 AM79 °FScattered clouds.No wind89%29.83 "HgN/A
6:30 AM77 °FPartly sunny.No wind89%29.83 "HgN/A
5:00 AM77 °FPassing clouds.No wind94%29.80 "HgN/A
4:30 AM77 °FPassing clouds.No wind94%29.80 "HgN/A
4:00 AM77 °FPassing clouds.No wind89%29.80 "HgN/A
3:30 AM77 °FPassing clouds.No wind89%29.80 "HgN/A
2:00 AM77 °FPassing clouds.No wind94%29.80 "HgN/A
1:00 AM77 °FPassing clouds.No wind94%29.83 "HgN/A
12:30 AM77 °FPassing clouds.No wind94%29.83 "Hg6 mi
12:00 AM77 °FPassing clouds.No wind94%29.83 "Hg6 mi
11:30 PM
Thu, May 28
77 °FPassing clouds.No wind89%29.83 "Hg6 mi
11:00 PM77 °FPassing clouds.No wind89%29.83 "Hg6 mi
10:00 PM77 °FPassing clouds.No wind94%29.83 "Hg6 mi
9:30 PM77 °FPassing clouds.No wind94%29.83 "HgN/A
9:00 PM77 °FPassing clouds.No wind94%29.83 "Hg5 mi
8:30 PM77 °FPassing clouds.No wind94%29.83 "Hg5 mi
8:00 PM77 °FPartly cloudy.No wind89%29.83 "Hg5 mi
7:30 PM77 °FPartly cloudy.5 mph89%29.80 "Hg5 mi
7:00 PM77 °FPartly cloudy.5 mph89%29.80 "Hg5 mi
6:30 PM84 °FStrong thunderstorms. Broken clouds.6 mph74%29.80 "Hg2 mi
6:00 PM84 °FBroken clouds.6 mph74%29.80 "HgN/A
5:30 PM86 °FBroken clouds.12 mph70%29.80 "HgN/A
5:00 PM86 °FBroken clouds.12 mph66%29.80 "HgN/A
4:30 PM86 °FBroken clouds.9 mph66%29.77 "HgN/A
Weather by CustomWeather, © 2015

See weather overviewHow to use our weather pages